Location: Ceske Budejovice
(48.9830°N, 14.4670°E)
Time: 07:36:33
(UTC+02:00)

DX 1 - Pass Details

Date: 21 August 2019
Orbit: 620 x 630 km, 98.4° (Epoch: 22 September)

Event Time Altitude Azimuth Distance (km) Brightness Sun altitude
Rises 03:22:40 0° 131° (SE) 2,888 ? -21.7°
Reaches altitude 10° 03:25:07 10° 119° (ESE) 1,987 ? -21.5°
Maximum altitude 03:28:41 26° 63° (ENE) 1,239 ? -21.1°
Drops below altitude 10° 03:32:16 10° 8° (N) 2,002 ? -20.7°
Sets 03:34:44 0° 355° (N) 2,914 ? -20.5°
